FW8246 Weather Reports


Display with metric or nautical units.
time (UTC)temp
F
wind
direction
speed
MPH
gust
MPH
rain 1hr
in
rain 24hr
in
rain mn
in
humidity
%
barometer
mb
20260507191551 58 0 0.0 2.0 0.00 0.04 0.04 79 1015.1
20260507190054 60 0 0.0 4.0 0.00 0.04 0.04 76 1014.9
20260507184552 59 0 0.0 4.0 0.00 0.04 0.04 79 1014.9
20260507183054 59 0 0.0 3.0 0.00 0.04 0.04 81 1014.8
20260507181559 60 0 0.0 0.0 0.00 0.04 0.04 80 1014.9
20260507180054 61 0 0.0 0.0 0.00 0.04 0.04 81 1015.0
20260507174557 63 0 0.0 0.0 0.00 0.04 0.04 77 1015.1
20260507173122 63 0 0.0 0.0 0.00 0.04 0.04 77 1015.2
20260507171557 64 0 0.0 0.0 0.00 0.04 0.04 75 1015.0
20260507170110 65 0 0.0 0.0 0.00 0.04 0.04 67 1015.0
20260507164555 66 0 0.0 0.0 0.00 0.04 0.04 69 1014.7
20260507163049 67 0 0.0 0.0 0.00 0.04 0.04 63 1014.9
20260507161602 68 0 0.0 0.0 0.00 0.04 0.04 62 1014.9
20260507160047 68 0 0.0 1.0 0.00 0.04 0.04 61 1014.9
20260507154551 68 0 0.0 3.0 0.00 0.04 0.04 60 1014.9
20260507153057 69 0 1.0 6.0 0.00 0.04 0.04 59 1014.8
20260507151548 69 0 0.0 4.0 0.00 0.04 0.04 59 1014.9
20260507150059 70 0 0.0 4.0 0.00 0.04 0.04 61 1014.9
20260507144556 69 305 0.0 3.0 0.00 0.04 0.04 59 1014.9
20260507143051 68 227 0.0 2.0 0.00 0.04 0.04 62 1015.0
20260507141633 68 0 0.0 3.0 0.00 0.04 0.04 59 1015.2
20260507140058 68 0 0.0 3.0 0.00 0.04 0.04 66 1015.3
20260507134556 68 294 0.0 2.0 0.00 0.04 0.04 64 1015.7
20260507133051 68 255 1.0 4.0 0.00 0.04 0.04 60 1015.7
20260507131548 69 292 0.0 3.0 0.00 0.04 0.04 67 1015.8
20260507130055 68 252 1.0 3.0 0.00 0.04 0.04 67 1015.9
20260507124553 68 0 0.0 2.0 0.00 0.04 0.04 65 1016.2
20260507123055 69 0 0.0 4.0 0.00 0.04 0.04 68 1016.2
20260507121550 68 248 0.0 2.0 0.00 0.04 0.04 69 1016.4
20260507120100 69 0 0.0 4.0 0.00 0.04 0.04 66 1016.4
20260507114547 69 0 0.0 4.0 0.00 0.04 0.04 64 1016.5
20260507113053 69 0 0.0 3.0 0.00 0.04 0.04 67 1016.6
20260507111549 68 232 0.0 4.0 0.00 0.04 0.04 65 1016.5
20260507110103 68 269 1.0 6.0 0.00 0.04 0.04 69 1016.6
20260507104554 67 275 0.0 2.0 0.00 0.04 0.04 70 1016.6
20260507103052 66 0 0.0 3.0 0.00 0.04 0.04 73 1016.7
20260507101559 65 0 0.0 3.0 0.00 0.04 0.04 72 1017.1
20260507100053 66 0 0.0 4.0 0.00 0.04 0.04 74 1017.0
20260507094600 65 278 0.0 4.0 0.00 0.04 0.04 73 1017.0
20260507093050 64 0 0.0 2.0 0.00 0.04 0.04 75 1016.6
20260507091549 64 0 0.0 3.0 0.00 0.04 0.04 74 1016.7
20260507090050 63 0 0.0 3.0 0.00 0.04 0.04 76 1016.8
20260507084548 63 0 0.0 0.0 0.00 0.04 0.04 77 1017.1
20260507083049 62 0 0.0 2.0 0.00 0.04 0.04 78 1016.8
20260507081549 61 0 0.0 4.0 0.00 0.04 0.04 79 1016.9
20260507080054 60 0 0.0 2.0 0.00 0.04 0.04 80 1017.0
20260507074549 59 0 0.0 3.0 0.00 0.05 0.04 79 1017.2
20260507073116 58 0 0.0 2.0 0.00 0.05 0.04 79 1017.3
20260507071548 57 0 0.0 1.0 0.00 0.05 0.04 87 1017.2
20260507070047 58 0 0.0 4.0 0.00 0.05 0.04 86 1017.1
20260507064605 58 0 0.0 2.0 0.00 0.09 0.04 85 1016.8
20260507063110 57 0 0.0 2.0 0.00 0.09 0.04 82 1016.3
20260507061556 56 0 0.0 3.0 0.00 0.09 0.04 87 1016.5
20260507060052 54 0 0.0 0.0 0.00 0.09 0.04 91 1016.6
20260507054556 54 0 0.0 0.0 0.00 0.09 0.04 92 1016.7
20260507053055 53 0 0.0 0.0 0.00 0.09 0.04 93 1017.1
20260507051553 53 0 0.0 0.0 0.00 0.09 0.04 93 1016.8
20260507050058 53 0 0.0 0.0 0.00 0.09 0.04 93 1016.5
20260507044553 53 0 0.0 0.0 0.00 0.10 0.04 93 1016.6
20260507043052 52 0 0.0 0.0 0.00 0.10 0.04 93 1016.5
20260507041550 52 0 0.0 0.0 0.00 0.10 0.04 93 1016.4
20260507040105 52 0 0.0 0.0 0.00 0.10 0.04 92 1016.4
20260507034605 52 0 0.0 0.0 0.00 0.10 0.04 92 1016.3
20260507033104 52 0 0.0 0.0 0.00 0.10 0.04 92 1016.4
20260507031551 52 0 0.0 1.0 0.00 0.10 0.04 92 1016.3
20260507030048 52 0 0.0 0.0 0.00 0.10 0.04 92 1016.2
20260507024557 52 0 0.0 0.0 0.00 0.11 0.04 92 1016.3
20260507023051 52 0 0.0 0.0 0.00 0.11 0.04 91 1016.2
20260507021552 52 0 0.0 0.0 0.00 0.11 0.04 91 1016.2
20260507020050 52 0 0.0 2.0 0.00 0.11 0.04 91 1016.3
20260507014552 52 163 1.0 4.0 0.01 0.11 0.04 92 1016.3
20260507013103 52 80 1.0 5.0 0.01 0.11 0.04 92 1016.5
20260507011548 52 0 0.0 4.0 0.01 0.11 0.04 93 1016.4
20260507010051 52 0 0.0 2.0 0.01 0.11 0.04 93 1016.5
20260507004551 52 93 0.0 3.0 0.00 0.10 0.03 93 1016.6
20260507003053 52 0 0.0 0.0 0.00 0.10 0.03 93 1016.5
20260507001607 52 0 0.0 0.0 0.00 0.10 0.03 93 1016.6
20260507000057 52 0 0.0 0.0 0.01 0.10 0.03 93 1016.7
20260506234608 52 0 0.0 0.0 0.02 0.10 0.03 92 1016.8
20260506233056 52 0 0.0 0.0 0.02 0.10 0.03 92 1016.9
20260506231555 53 0 0.0 0.0 0.02 0.10 0.03 92 1017.1
20260506230052 53 0 0.0 0.0 0.02 0.09 0.02 91 1017.2
20260506224607 53 0 0.0 0.0 0.01 0.08 0.01 91 1017.4
20260506223054 53 0 0.0 0.0 0.01 0.08 0.01 91 1017.5
20260506221600 53 0 0.0 0.0 0.01 0.08 0.01 90 1017.5
20260506214551 53 0 0.0 0.0 0.00 0.07 0.07 88 1017.3
20260506213053 54 143 0.0 1.0 0.00 0.07 0.07 86 1017.2
20260506211554 55 0 0.0 5.0 0.00 0.07 0.07 83 1017.3
20260506210051 55 165 0.0 4.0 0.00 0.07 0.07 81 1017.5
20260506204548 55 37 0.0 4.0 0.00 0.07 0.07 82 1017.9
20260506203058 55 0 0.0 3.0 0.00 0.07 0.07 81 1017.8
20260506201545 56 0 0.0 4.0 0.00 0.07 0.07 81 1017.8
20260506200047 56 0 0.0 3.0 0.00 0.07 0.07 82 1017.8
20260506194552 54 0 0.0 0.0 0.00 0.07 0.07 86 1017.8
20260506193052 55 0 0.0 0.0 0.00 0.07 0.07 85 1017.6